Find Helusi 2

NORAD ID: 55844 Int'l Des: 2023-032 Owner: EGYSA Country: EG operational
LEOCIRCULARRETROGRADESSO

当前视图

正在加载3D地球...

关于 Helusi 2

正在加载描述...

即将过境

Passes for default location (London). Set your location on the main map for personalized predictions.

高度历史

Loading altitude history...

两行轨道根数

1 55844U 23032A 26146.24989398 .00006651 00000-0 28142-3 0 9995
2 55844 97.3539 222.0898 0003366 121.0785 239.0783 15.23515308178143
Epoch: May 26, 2026 • Age: 8 hours

当前状态

高度 512.6 km
速度 7.60 km/s
星下点 -39.63°S, 138.8°E
发射日期 Mar 13, 2023
运行时间 3.2 years
类型 other

技术详情

分类 Payload
质量 330.00 kg
干质量 330.00 kg
总质量 330.00 kg
长度 1.50 m
直径 1.00 m
跨度 4.00 m
形状 Box + 2 Pan
制造商 DFHZ
平台类型 CAST-2000
阶段状态 In Orbit
所有者/国家 EGYSA/EG

Most Searched